#�ϑ�����,���ϕ���,���ϕ���,�ő啗��,�ő啗����������,�ő�u�ԕ���,�ő�u�ԕ�����������
#(�N����),(m/s)   ,(16����),(m/s)   ,(16����)        ,(m/s)       ,(16����)            
2012/10/1 0:01,0.9,10,0.9,14,2.5,6
2012/10/1 0:02,1,9,1,14,2.6,6
2012/10/1 0:03,1,8,1,14,2.2,6
2012/10/1 0:04,1.1,7,1.1,14,3.2,6
2012/10/1 0:05,1.2,7,1.2,7,2.6,5
2012/10/1 0:06,1.4,6,1.4,6,4.2,5
2012/10/1 0:07,1.6,6,1.6,6,2.6,7
2012/10/1 0:08,1.8,6,1.8,6,2.6,6
2012/10/1 0:09,1.8,6,1.8,6,2.2,7
2012/10/1 0:10,1.8,6,1.8,6,1.4,6
2012/10/1 0:11,1.7,6,1.8,6,1.1,5
2012/10/1 0:12,1.6,6,1.7,6,2.5,5
2012/10/1 0:13,1.6,6,1.6,6,2.1,6
2012/10/1 0:14,1.5,6,1.6,6,1.9,4
2012/10/1 0:15,1.4,6,1.5,6,1.9,5
2012/10/1 0:16,1.2,6,1.4,6,1.6,6
2012/10/1 0:17,1.2,6,1.2,6,1.4,7
2012/10/1 0:18,1,6,1.1,6,1,8
2012/10/1 0:19,0.9,6,1,6,0.1,6
2012/10/1 0:20,0.8,6,0.8,6,0.1,12
2012/10/1 0:21,0.7,6,0.7,6,0.6,2
2012/10/1 0:22,0.6,6,0.7,6,0.9,2
2012/10/1 0:23,0.6,5,0.6,6,1.4,1
2012/10/1 0:24,0.6,5,0.6,6,1.9,2
2012/10/1 0:25,0.6,4,0.6,6,2,2
2012/10/1 0:26,0.7,4,0.7,6,2.1,3
2012/10/1 0:27,0.7,3,0.7,6,1.8,3
2012/10/1 0:28,0.8,3,0.8,6,2,3
2012/10/1 0:29,1,2,1,2,1.5,1
2012/10/1 0:30,1.1,2,1.1,2,2.2,3
2012/10/1 0:31,1.2,2,1.2,2,2.1,2
2012/10/1 0:32,1.3,2,1.3,2,2,3
2012/10/1 0:33,1.3,2,1.3,2,2.1,3
2012/10/1 0:34,1.3,2,1.3,2,1.9,4
2012/10/1 0:35,1.4,3,1.4,3,2.5,4
2012/10/1 0:36,1.4,3,1.4,3,2.2,3
2012/10/1 0:37,1.4,3,1.4,3,2.1,3
2012/10/1 0:38,1.4,3,1.4,3,1.9,3
2012/10/1 0:39,1.4,3,1.4,3,1.6,2
2012/10/1 0:40,1.4,3,1.4,3,1.6,3
2012/10/1 0:41,1.4,3,1.4,3,1.5,3
2012/10/1 0:42,1.3,3,1.4,3,0.8,2
2012/10/1 0:43,1.2,3,1.3,3,0.6,1
2012/10/1 0:44,1.1,2,1.2,3,0.6,1
2012/10/1 0:45,1,2,1.1,3,0.6,1
2012/10/1 0:46,0.8,2,0.9,3,0.5,2
2012/10/1 0:47,0.7,2,0.8,3,0.4,16
2012/10/1 0:48,0.6,2,0.6,3,1.1,1
2012/10/1 0:49,0.5,2,0.6,3,0.5,16
2012/10/1 0:50,0.3,1,0.4,3,0.3,1
2012/10/1 0:51,0.3,1,0.3,3,1.4,16
2012/10/1 0:52,0.3,1,0.3,3,1,2
2012/10/1 0:53,0.3,1,0.3,3,0.6,16
2012/10/1 0:54,0.3,1,0.3,2,0.8,15
2012/10/1 0:55,0.3,1,0.3,2,0.6,16
2012/10/1 0:56,0.3,1,0.3,2,0.5,16
2012/10/1 0:57,0.4,1,0.4,2,1.3,1
2012/10/1 0:58,0.4,1,0.4,2,0.9,2
2012/10/1 0:59,0.5,1,0.5,1,1.1,1
2012/10/1 1:00,0.5,1,0.5,1,1.1,1
2012/10/1 1:01,0.5,1,0.6,1,1,1
2012/10/1 1:02,0.5,1,0.5,1,0.9,1
2012/10/1 1:03,0.6,1,0.6,1,0.8,1
2012/10/1 1:04,0.6,1,0.6,1,0.9,1
2012/10/1 1:05,0.6,1,0.6,1,0.9,16
2012/10/1 1:06,0.7,1,0.7,1,1.3,1
2012/10/1 1:07,0.6,1,0.7,1,0.8,1
2012/10/1 1:08,0.6,1,0.6,1,1,1
2012/10/1 1:09,0.6,1,0.6,1,0.9,1
2012/10/1 1:10,0.6,1,0.6,1,0.9,1
2012/10/1 1:11,0.6,1,0.6,1,1.1,16
2012/10/1 1:12,0.6,1,0.6,1,1.1,16
2012/10/1 1:13,0.6,1,0.6,1,0.5,2
2012/10/1 1:14,0.6,16,0.6,1,0.9,16
2012/10/1 1:15,0.6,16,0.6,1,1,16
2012/10/1 1:16,0.6,16,0.6,1,1,16
2012/10/1 1:17,0.6,16,0.6,1,0.8,16
2012/10/1 1:18,0.5,16,0.6,1,0.5,16
2012/10/1 1:19,0.5,16,0.5,1,0.4,16
2012/10/1 1:20,0.5,16,0.5,1,0.5,16
2012/10/1 1:21,0.4,16,0.5,1,0.1,2
2012/10/1 1:22,0.3,16,0.4,1,0.6,16
2012/10/1 1:23,0.3,16,0.3,16,0.6,1
2012/10/1 1:24,0.4,16,0.4,16,1.3,16
2012/10/1 1:25,0.4,16,0.4,16,1,16
2012/10/1 1:26,0.4,16,0.4,16,1.3,16
2012/10/1 1:27,0.4,16,0.4,16,1.3,15
2012/10/1 1:28,0.5,16,0.5,16,1,15
2012/10/1 1:29,0.6,16,0.6,16,1.5,15
2012/10/1 1:30,0.6,16,0.6,16,1,16
2012/10/1 1:31,0.7,16,0.7,16,1,15
2012/10/1 1:32,0.7,16,0.7,16,0.9,15
2012/10/1 1:33,0.7,16,0.7,16,1,15
2012/10/1 1:34,0.7,15,0.7,16,0.9,15
2012/10/1 1:35,0.7,15,0.7,16,1,14
2012/10/1 1:36,0.6,15,0.7,16,0.4,14
2012/10/1 1:37,0.5,15,0.6,16,0.1,14
2012/10/1 1:38,0.5,15,0.5,16,0.3,14
2012/10/1 1:39,0.4,15,0.4,16,0.3,14
2012/10/1 1:40,0.3,14,0.4,16,0.1,14
2012/10/1 1:41,0.2,14,0.3,16,0,14
2012/10/1 1:42,0.2,14,0.2,16,0,14
2012/10/1 1:43,0.1,14,0.2,15,0,14
2012/10/1 1:44,0.1,14,0.1,15,0,14
2012/10/1 1:45,0,14,0.1,15,0.1,14
2012/10/1 1:46,0,14,0,15,0,14
2012/10/1 1:47,0,14,0,15,0,14
2012/10/1 1:48,0,14,0,15,0,14
2012/10/1 1:49,0,14,0,15,0.1,14
2012/10/1 1:50,0,14,0,14,0,14
2012/10/1 1:51,0,14,0,14,0,14
2012/10/1 1:52,0,14,0,14,0.1,14
2012/10/1 1:53,0,14,0,14,0.1,2
2012/10/1 1:54,0,15,0,14,0.5,1
2012/10/1 1:55,0.1,15,0.1,15,0.9,16
2012/10/1 1:56,0.1,15,0.1,15,0.9,15
2012/10/1 1:57,0.1,15,0.1,15,0.3,16
2012/10/1 1:58,0.1,15,0.1,15,0.3,15
2012/10/1 1:59,0.1,15,0.1,15,0.1,15
2012/10/1 2:00,0.1,15,0.1,15,0.1,15
2012/10/1 2:01,0.1,15,0.1,15,0.1,15
2012/10/1 2:02,0.1,16,0.1,15,0.1,15
2012/10/1 2:03,0.1,15,0.1,15,0,15
2012/10/1 2:04,0.1,15,0.1,15,0,15
2012/10/1 2:05,0.1,15,0.1,15,0,15
2012/10/1 2:06,0,15,0,15,0,15
2012/10/1 2:07,0,15,0,15,0,15
2012/10/1 2:08,0,15,0,15,0,15
2012/10/1 2:09,0,15,0,15,0,15
2012/10/1 2:10,0,15,0,15,0,15
2012/10/1 2:11,0,15,0,15,0,15
2012/10/1 2:12,0,15,0,16,0.1,15
2012/10/1 2:13,0,15,0,15,0.1,3
2012/10/1 2:14,0,15,0,15,0.4,7
2012/10/1 2:15,0,15,0,15,0.3,7
2012/10/1 2:16,0,15,0,15,0.1,6
2012/10/1 2:17,0,15,0,15,0.1,6
2012/10/1 2:18,0,13,0,15,0.5,8
2012/10/1 2:19,0.1,9,0.1,10,0.9,9
2012/10/1 2:20,0.1,8,0.1,10,0.8,9
2012/10/1 2:21,0.1,8,0.1,10,0.3,9
2012/10/1 2:22,0.1,8,0.1,10,0.1,11
2012/10/1 2:23,0.1,9,0.1,10,0,11
2012/10/1 2:24,0.1,9,0.1,10,0,11
2012/10/1 2:25,0.1,9,0.1,10,0,11
2012/10/1 2:26,0.1,10,0.1,10,0.1,14
2012/10/1 2:27,0.2,10,0.2,10,0.9,15
2012/10/1 2:28,0.2,11,0.2,10,0.8,16
2012/10/1 2:29,0.1,12,0.2,10,0.6,16
2012/10/1 2:30,0.1,13,0.1,10,0.8,16
2012/10/1 2:31,0.2,14,0.2,10,0.8,1
2012/10/1 2:32,0.3,15,0.3,15,1.3,1
2012/10/1 2:33,0.4,16,0.4,16,1.1,16
2012/10/1 2:34,0.4,16,0.4,16,1.1,16
2012/10/1 2:35,0.4,16,0.4,16,0.5,1
2012/10/1 2:36,0.4,1,0.4,16,0,1
2012/10/1 2:37,0.4,1,0.4,16,0,1
2012/10/1 2:38,0.4,1,0.4,16,0.6,1
2012/10/1 2:39,0.4,1,0.4,16,0.4,2
2012/10/1 2:40,0.4,1,0.4,16,0,3
2012/10/1 2:41,0.3,2,0.4,16,0.1,3
2012/10/1 2:42,0.2,2,0.3,16,0,5
2012/10/1 2:43,0.1,2,0.2,16,0,5
2012/10/1 2:44,0.1,3,0.1,16,0.5,6
2012/10/1 2:45,0.1,3,0.1,16,0.4,6
2012/10/1 2:46,0.1,4,0.1,1,0.3,6
2012/10/1 2:47,0.1,4,0.1,1,0,6
2012/10/1 2:48,0.1,5,0.1,1,0.1,4
2012/10/1 2:49,0.1,5,0.1,1,0,7
2012/10/1 2:50,0.1,6,0.1,1,0.1,8
2012/10/1 2:51,0.1,6,0.1,2,0.5,10
2012/10/1 2:52,0.1,7,0.1,2,0.5,9
2012/10/1 2:53,0.1,8,0.1,2,0.9,10
2012/10/1 2:54,0.1,8,0.2,8,0.5,9
2012/10/1 2:55,0.1,8,0.1,8,0.3,9
2012/10/1 2:56,0.1,8,0.1,8,0.1,7
2012/10/1 2:57,0.1,8,0.1,8,0,7
2012/10/1 2:58,0.1,8,0.1,8,0,7
2012/10/1 2:59,0.1,8,0.1,8,0,7
2012/10/1 3:00,0.1,8,0.1,8,0,4
2012/10/1 3:01,0.1,7,0.1,8,0.9,15
2012/10/1 3:02,0.2,7,0.2,8,1.4,15
2012/10/1 3:03,0.2,6,0.2,8,1.1,16
2012/10/1 3:04,0.2,5,0.2,7,1.3,14
2012/10/1 3:05,0.4,2,0.4,2,1.4,14
2012/10/1 3:06,0.4,16,0.4,2,1.3,14
2012/10/1 3:07,0.5,15,0.5,16,1.3,15
2012/10/1 3:08,0.7,15,0.7,15,1.5,15
2012/10/1 3:09,0.8,15,0.8,15,1.3,14
2012/10/1 3:10,0.8,14,0.8,15,0.9,14
2012/10/1 3:11,0.8,14,0.8,15,0.4,13
2012/10/1 3:12,0.8,14,0.8,15,0.5,15
2012/10/1 3:13,0.7,14,0.7,15,0.5,15
2012/10/1 3:14,0.6,14,0.7,15,0,15
2012/10/1 3:15,0.5,14,0.6,15,0,15
2012/10/1 3:16,0.4,15,0.5,15,0,15
2012/10/1 3:17,0.3,15,0.4,15,0,15
2012/10/1 3:18,0.2,15,0.3,15,0,15
2012/10/1 3:19,0.1,15,0.2,15,0,15
2012/10/1 3:20,0,15,0.1,14,0.1,15
2012/10/1 3:21,0,15,0,14,0.3,7
2012/10/1 3:22,0,15,0,14,0.5,7
2012/10/1 3:23,0.1,15,0.1,14,0.8,7
2012/10/1 3:24,0.1,15,0.1,14,0.9,6
2012/10/1 3:25,0.2,16,0.2,14,0.8,7
2012/10/1 3:26,0.2,6,0.2,15,0.6,7
2012/10/1 3:27,0.2,6,0.2,15,0,7
2012/10/1 3:28,0.2,7,0.2,15,0,7
2012/10/1 3:29,0.2,7,0.2,16,0,7
2012/10/1 3:30,0.2,7,0.2,16,0,7
2012/10/1 3:31,0.2,7,0.2,16,0,7
2012/10/1 3:32,0.1,7,0.2,16,0,7
2012/10/1 3:33,0.1,7,0.1,16,0,7
2012/10/1 3:34,0.1,7,0.1,16,0.5,10
2012/10/1 3:35,0.1,7,0.1,16,0.5,9
2012/10/1 3:36,0,8,0.1,6,0.1,10
2012/10/1 3:37,0,8,0,6,0.3,8
2012/10/1 3:38,0.1,8,0.1,7,0.3,8
2012/10/1 3:39,0.1,8,0.1,7,0.1,8
2012/10/1 3:40,0.1,8,0.1,7,0.1,2
2012/10/1 3:41,0.1,8,0.1,7,0,2
2012/10/1 3:42,0.1,8,0.1,7,0,2
2012/10/1 3:43,0.1,8,0.1,7,0.1,16
2012/10/1 3:44,0.1,4,0.1,7,0.9,15
2012/10/1 3:45,0.1,1,0.1,7,1,15
2012/10/1 3:46,0.2,1,0.2,1,1.1,15
2012/10/1 3:47,0.2,1,0.2,1,1.1,15
2012/10/1 3:48,0.3,1,0.3,1,1,15
2012/10/1 3:49,0.3,16,0.3,1,0.8,16
2012/10/1 3:50,0.4,16,0.4,16,1.1,16
2012/10/1 3:51,0.5,16,0.5,16,1.8,1
2012/10/1 3:52,0.6,16,0.6,16,1.6,1
2012/10/1 3:53,0.7,16,0.7,16,1.5,16
2012/10/1 3:54,0.8,16,0.8,16,1.6,15
2012/10/1 3:55,0.9,16,0.9,16,1.9,16
2012/10/1 3:56,1,16,1,16,2.1,16
2012/10/1 3:57,1,16,1,16,1.3,15
2012/10/1 3:58,1,16,1,16,1.1,16
2012/10/1 3:59,1.1,16,1.1,16,1.8,16
2012/10/1 4:00,1.1,16,1.1,16,1.8,16
2012/10/1 4:01,1,16,1.1,16,0.6,16
2012/10/1 4:02,1,16,1,16,1,3
2012/10/1 4:03,0.9,1,1,16,1.4,4
2012/10/1 4:04,0.9,1,0.9,16,0.8,3
2012/10/1 4:05,0.7,1,0.9,16,0.5,16
2012/10/1 4:06,0.6,1,0.7,16,0.6,13
2012/10/1 4:07,0.6,1,0.6,16,0.5,16
2012/10/1 4:08,0.6,1,0.6,16,1.3,16
2012/10/1 4:09,0.5,1,0.6,16,0.8,1
2012/10/1 4:10,0.4,1,0.5,16,0.5,2
2012/10/1 4:11,0.4,1,0.4,16,0.4,16
2012/10/1 4:12,0.3,16,0.4,16,0.1,14
2012/10/1 4:13,0.2,16,0.3,1,0,14
2012/10/1 4:14,0.2,15,0.2,1,0,14
2012/10/1 4:15,0.2,15,0.2,1,0,14
2012/10/1 4:16,0.2,15,0.2,1,0.4,12
2012/10/1 4:17,0.1,15,0.2,1,0.3,12
2012/10/1 4:18,0.1,14,0.1,1,0.5,14
2012/10/1 4:19,0.1,14,0.1,1,0.5,14
2012/10/1 4:20,0.1,14,0.1,1,0.8,14
2012/10/1 4:21,0.2,14,0.2,1,0.6,15
2012/10/1 4:22,0.2,14,0.2,16,0.5,15
2012/10/1 4:23,0.2,14,0.2,16,0.3,15
2012/10/1 4:24,0.2,14,0.2,15,0,15
2012/10/1 4:25,0.2,14,0.2,15,0.1,15
2012/10/1 4:26,0.2,14,0.2,15,0.1,15
2012/10/1 4:27,0.2,15,0.2,14,0.1,15
2012/10/1 4:28,0.1,15,0.1,14,0,15
2012/10/1 4:29,0.1,15,0.1,14,0,15
2012/10/1 4:30,0.1,15,0.1,14,0.8,16
2012/10/1 4:31,0.1,15,0.1,14,0.6,1
2012/10/1 4:32,0.1,15,0.1,14,0.5,1
2012/10/1 4:33,0.1,16,0.1,14,0.4,1
2012/10/1 4:34,0.1,16,0.1,14,0.4,1
2012/10/1 4:35,0.2,16,0.2,14,1,3
2012/10/1 4:36,0.3,1,0.3,1,1,3
2012/10/1 4:37,0.3,1,0.3,1,0.6,2
2012/10/1 4:38,0.3,1,0.3,1,0.6,16
2012/10/1 4:39,0.3,1,0.3,1,0.4,16
2012/10/1 4:40,0.3,1,0.3,1,0.9,9
2012/10/1 4:41,0.3,1,0.3,1,0.4,11
2012/10/1 4:42,0.3,1,0.3,1,1.8,15
2012/10/1 4:43,0.4,16,0.4,16,1.8,15
2012/10/1 4:44,0.5,16,0.5,16,1.3,14
2012/10/1 4:45,0.5,16,0.5,16,0.9,5
2012/10/1 4:46,0.5,16,0.5,16,1.5,3
2012/10/1 4:47,0.5,1,0.5,16,0.9,3
2012/10/1 4:48,0.5,1,0.5,16,0.5,9
2012/10/1 4:49,0.6,1,0.6,1,1.3,10
2012/10/1 4:50,0.6,2,0.6,1,1.8,8
2012/10/1 4:51,0.6,2,0.6,1,0.4,1
2012/10/1 4:52,0.6,2,0.6,1,1.9,15
2012/10/1 4:53,0.6,2,0.6,1,1.5,16
2012/10/1 4:54,0.5,1,0.6,1,0.6,3
2012/10/1 4:55,0.4,1,0.5,1,0.1,9
2012/10/1 4:56,0.4,10,0.4,1,0,8
2012/10/1 4:57,0.3,10,0.4,1,0.1,2
2012/10/1 4:58,0.4,7,0.4,1,1.3,4
2012/10/1 4:59,0.4,4,0.4,1,1.6,4
2012/10/1 5:00,0.5,4,0.5,2,1.8,4
2012/10/1 5:01,0.6,4,0.6,2,1.9,3
2012/10/1 5:02,0.7,4,0.7,4,1.6,4
2012/10/1 5:03,0.7,5,0.7,4,1.3,3
2012/10/1 5:04,0.8,5,0.8,5,1.3,5
2012/10/1 5:05,0.9,4,0.9,4,2.4,5
2012/10/1 5:06,1.1,4,1.1,4,2.4,5
2012/10/1 5:07,1.2,4,1.2,4,1.9,5
2012/10/1 5:08,1.2,5,1.2,4,1.8,8
2012/10/1 5:09,1.2,5,1.2,4,2.1,8
2012/10/1 5:10,1,5,1.2,4,0.5,7
2012/10/1 5:11,0.9,5,1,4,0.1,5
2012/10/1 5:12,0.8,5,0.9,4,0.9,16
2012/10/1 5:13,0.9,5,0.9,4,1.5,1
2012/10/1 5:14,0.8,4,0.9,4,0.9,15
2012/10/1 5:15,0.7,4,0.8,4,0.1,3
2012/10/1 5:16,0.5,4,0.6,4,0.3,6
2012/10/1 5:17,0.4,5,0.5,4,0.8,10
2012/10/1 5:18,0.4,5,0.4,5,0.9,9
2012/10/1 5:19,0.4,4,0.4,5,1.4,3
2012/10/1 5:20,0.5,4,0.5,5,1.6,3
2012/10/1 5:21,0.6,3,0.6,5,1.6,3
2012/10/1 5:22,0.7,3,0.7,5,1.1,2
2012/10/1 5:23,0.6,3,0.7,5,1,3
2012/10/1 5:24,0.6,3,0.6,4,0.4,1
2012/10/1 5:25,0.6,3,0.6,3,0,1
2012/10/1 5:26,0.7,3,0.7,3,1.4,10
2012/10/1 5:27,0.7,2,0.7,3,1.4,10
2012/10/1 5:28,0.7,2,0.7,3,1.4,12
2012/10/1 5:29,0.7,1,0.7,3,0.8,16
2012/10/1 5:30,0.6,1,0.7,3,0.5,11
2012/10/1 5:31,0.5,1,0.6,3,0.9,16
2012/10/1 5:32,0.5,1,0.5,3,1,2
2012/10/1 5:33,0.5,1,0.5,3,0.9,2
2012/10/1 5:34,0.5,1,0.5,3,0.8,3
2012/10/1 5:35,0.5,1,0.5,3,0.4,8
2012/10/1 5:36,0.5,2,0.5,3,0.6,6
2012/10/1 5:37,0.5,2,0.5,2,1.5,8
2012/10/1 5:38,0.5,4,0.5,2,1.8,9
2012/10/1 5:39,0.5,4,0.5,1,0.8,9
2012/10/1 5:40,0.5,5,0.5,1,0.1,6
2012/10/1 5:41,0.4,5,0.5,1,0,1
2012/10/1 5:42,0.4,7,0.4,1,1.5,9
2012/10/1 5:43,0.4,8,0.4,1,1.6,9
2012/10/1 5:44,0.5,9,0.5,1,1.3,10
2012/10/1 5:45,0.5,9,0.5,1,0.9,13
2012/10/1 5:46,0.5,10,0.5,2,1,16
2012/10/1 5:47,0.5,13,0.5,2,1,1
2012/10/1 5:48,0.4,16,0.4,4,0.4,3
2012/10/1 5:49,0.4,16,0.4,5,0.8,6
2012/10/1 5:50,0.4,1,0.4,5,1,5
2012/10/1 5:51,0.4,4,0.4,8,0.1,5
2012/10/1 5:52,0.5,4,0.5,8,1,6
2012/10/1 5:53,0.5,4,0.5,8,2.6,9
2012/10/1 5:54,0.5,4,0.5,9,1.5,9
2012/10/1 5:55,0.6,5,0.6,5,1.9,5
2012/10/1 5:56,0.6,5,0.6,5,2.5,16
2012/10/1 5:57,0.8,5,0.8,5,2.7,16
2012/10/1 5:58,0.9,4,0.9,5,1.8,16
2012/10/1 5:59,0.9,4,0.9,5,0.6,16
2012/10/1 6:00,0.9,2,0.9,5,1.1,15
2012/10/1 6:01,0.9,1,0.9,5,0.4,13
2012/10/1 6:02,0.8,16,0.9,5,0.4,14
2012/10/1 6:03,0.7,16,0.8,5,0.8,5
2012/10/1 6:04,0.7,1,0.7,5,1.1,6
2012/10/1 6:05,0.7,1,0.7,5,1.5,6
2012/10/1 6:06,0.7,16,0.7,5,1.1,8
2012/10/1 6:07,0.5,1,0.6,5,0.3,15
2012/10/1 6:08,0.4,16,0.4,4,0.3,13
2012/10/1 6:09,0.4,1,0.4,3,0.9,15
2012/10/1 6:10,0.4,15,0.4,2,1.3,15
2012/10/1 6:11,0.4,14,0.4,1,0.5,15
2012/10/1 6:12,0.5,9,0.5,16,1.5,9
2012/10/1 6:13,0.5,10,0.5,16,1.5,8
2012/10/1 6:14,0.6,10,0.6,1,2,6
2012/10/1 6:15,0.7,10,0.7,1,2,6
2012/10/1 6:16,0.7,10,0.7,10,0.9,6
2012/10/1 6:17,0.7,10,0.7,10,0.9,16
2012/10/1 6:18,0.7,10,0.7,10,0.8,12
2012/10/1 6:19,0.8,10,0.8,10,1.1,10
2012/10/1 6:20,0.8,9,0.8,10,2.2,10
2012/10/1 6:21,1,9,1,9,2.5,11
2012/10/1 6:22,1.1,9,1.1,9,3,10
2012/10/1 6:23,1.1,10,1.1,9,3,9
2012/10/1 6:24,1.1,10,1.1,9,1.4,10
2012/10/1 6:25,1,10,1,9,0.9,10
2012/10/1 6:26,1,10,1,9,0.5,9
2012/10/1 6:27,1,10,1,9,1,4
2012/10/1 6:28,1.1,9,1.1,9,2.5,6
2012/10/1 6:29,1.2,9,1.2,9,3.7,4
2012/10/1 6:30,1.2,8,1.2,9,2,6
2012/10/1 6:31,1.1,7,1.2,9,1.9,3
2012/10/1 6:32,1,6,1.1,9,1.1,16
2012/10/1 6:33,0.9,5,1,9,1,16
2012/10/1 6:34,0.8,4,0.9,9,0.5,3
2012/10/1 6:35,0.8,4,0.8,9,0.5,8
2012/10/1 6:36,0.8,4,0.8,9,1.5,8
2012/10/1 6:37,0.9,5,0.9,9,2,7
2012/10/1 6:38,0.8,4,0.9,9,0.5,8
2012/10/1 6:39,0.6,5,0.7,8,1,7
2012/10/1 6:40,0.6,5,0.7,8,2.6,4
2012/10/1 6:41,0.6,5,0.6,7,1.1,1
2012/10/1 6:42,0.5,6,0.6,6,1.1,6
2012/10/1 6:43,0.7,7,0.7,5,3.6,12
2012/10/1 6:44,1.1,8,1.1,8,4.7,12
2012/10/1 6:45,1.4,8,1.4,8,3.7,11
2012/10/1 6:46,1.6,9,1.6,9,3.7,9
2012/10/1 6:47,1.5,9,1.6,9,3.5,9
2012/10/1 6:48,1.7,10,1.7,9,3.3,9
2012/10/1 6:49,1.9,10,1.9,10,3.6,8
2012/10/1 6:50,2.2,10,2.2,10,3.7,8
2012/10/1 6:51,2.3,10,2.3,10,3.2,8
2012/10/1 6:52,2.4,10,2.4,10,3.1,10
2012/10/1 6:53,2.3,9,2.4,10,2.7,10
2012/10/1 6:54,2,9,2.3,10,1.4,9
2012/10/1 6:55,1.8,9,2,10,1.8,8
2012/10/1 6:56,1.7,9,1.8,10,1.9,8
2012/10/1 6:57,1.7,9,1.7,10,1.5,9
2012/10/1 6:58,1.7,9,1.7,10,2.2,9
2012/10/1 6:59,1.5,9,1.6,10,2.6,8
2012/10/1 7:00,1.3,9,1.5,10,2,13
2012/10/1 7:01,1.2,9,1.3,10,1.8,1
2012/10/1 7:02,1.1,9,1.2,10,1,1
2012/10/1 7:03,1,9,1.1,9,0.9,1
2012/10/1 7:04,0.9,9,1,9,0.3,16
2012/10/1 7:05,0.8,7,0.9,9,0.3,8
2012/10/1 7:06,0.7,4,0.8,9,0.6,1
2012/10/1 7:07,0.6,4,0.7,9,1.5,5
2012/10/1 7:08,0.5,4,0.6,9,1.5,7
2012/10/1 7:09,0.6,4,0.6,9,4.3,6
2012/10/1 7:10,0.7,4,0.7,9,3.8,6
2012/10/1 7:11,0.7,4,0.7,9,2,3
2012/10/1 7:12,0.8,4,0.8,9,2.4,4
2012/10/1 7:13,0.9,5,0.9,9,2,7
2012/10/1 7:14,1.2,6,1.2,6,4.8,7
2012/10/1 7:15,1.2,6,1.2,6,2.9,9
2012/10/1 7:16,1.3,6,1.3,6,0.9,16
2012/10/1 7:17,1.3,6,1.3,6,2.1,15
2012/10/1 7:18,1.4,6,1.4,6,2.9,15
2012/10/1 7:19,1.6,5,1.6,5,5.8,4
2012/10/1 7:20,1.6,4,1.6,5,5.7,5
2012/10/1 7:21,1.6,6,1.6,5,1.6,12
2012/10/1 7:22,1.6,6,1.6,5,2.1,5
2012/10/1 7:23,1.8,5,1.8,6,5,2
2012/10/1 7:24,1.7,2,1.8,6,3.7,16
2012/10/1 7:25,1.8,2,1.8,6,1.9,3
2012/10/1 7:26,1.9,3,1.9,3,2,3
2012/10/1 7:27,1.9,3,1.9,3,2.7,6
2012/10/1 7:28,1.8,4,1.9,3,1.3,8
2012/10/1 7:29,1.6,5,1.8,3,3,6
2012/10/1 7:30,1.7,5,1.7,3,3.6,6
2012/10/1 7:31,1.8,4,1.8,3,3,6
2012/10/1 7:32,1.8,4,1.8,3,2.1,1
2012/10/1 7:33,1.6,4,1.8,3,4.9,2
2012/10/1 7:34,1.7,4,1.7,3,3.7,16
2012/10/1 7:35,1.8,4,1.8,3,3,16
2012/10/1 7:36,1.8,4,1.8,3,2.7,3
2012/10/1 7:37,1.8,3,1.8,3,2.7,2
2012/10/1 7:38,1.9,3,1.9,3,2.1,5
2012/10/1 7:39,1.9,3,1.9,3,2.2,6
2012/10/1 7:40,1.8,3,1.9,3,3.2,6
2012/10/1 7:41,1.9,3,1.9,3,3.6,6
2012/10/1 7:42,2,4,2,3,3.6,7
2012/10/1 7:43,2,4,2.1,4,3.2,8
2012/10/1 7:44,2,5,2.1,4,3.5,8
2012/10/1 7:45,2,6,2,4,3.9,9
2012/10/1 7:46,2.1,7,2.1,4,2.7,8
2012/10/1 7:47,2,7,2.1,4,2.4,9
2012/10/1 7:48,2,8,2,4,3.2,9
2012/10/1 7:49,2,8,2,4,2.9,9
2012/10/1 7:50,2,8,2,4,4.1,9
2012/10/1 7:51,1.9,9,1.9,4,3.5,8
2012/10/1 7:52,1.8,9,1.9,4,3.2,9
2012/10/1 7:53,1.8,9,1.8,5,4.4,7
2012/10/1 7:54,1.9,9,1.9,6,4.9,7
2012/10/1 7:55,1.9,9,1.9,6,6,8
2012/10/1 7:56,2,9,2,7,4.4,4
2012/10/1 7:57,1.9,9,2,7,1.3,7
2012/10/1 7:58,1.8,8,1.9,8,0.6,3
2012/10/1 7:59,1.7,8,1.8,8,2,3
2012/10/1 8:00,1.6,7,1.7,9,1.9,4
2012/10/1 8:01,1.5,6,1.6,9,1.9,2
2012/10/1 8:02,1.4,6,1.5,9,2.9,6
2012/10/1 8:03,1.4,6,1.5,9,2.9,7
2012/10/1 8:04,1.2,5,1.3,9,1.8,5
2012/10/1 8:05,1,5,1.2,9,1.8,10
2012/10/1 8:06,0.8,5,1,9,2.2,6
2012/10/1 8:07,0.8,5,0.8,8,0.8,5
2012/10/1 8:08,0.8,6,0.8,8,1.3,10
2012/10/1 8:09,0.9,7,0.9,8,1.8,8
2012/10/1 8:10,0.9,7,0.9,7,3,9
2012/10/1 8:11,1,8,1,6,5.5,13
2012/10/1 8:12,1.2,9,1.2,6,6.7,12
2012/10/1 8:13,1.3,9,1.3,6,3.8,14
2012/10/1 8:14,1.3,11,1.3,9,2.1,1
2012/10/1 8:15,1.5,11,1.5,11,4.5,8
2012/10/1 8:16,1.5,12,1.5,11,3.2,7
2012/10/1 8:17,1.6,13,1.6,12,3.5,13
2012/10/1 8:18,1.9,14,1.9,14,5.1,16
2012/10/1 8:19,2,15,2,14,5.7,15
2012/10/1 8:20,2,16,2,14,1.9,2
2012/10/1 8:21,1.9,16,2,14,3.1,16
2012/10/1 8:22,1.8,16,1.9,14,3.8,16
2012/10/1 8:23,1.8,16,1.8,14,4.3,10
2012/10/1 8:24,1.9,16,1.9,14,4.1,9
2012/10/1 8:25,1.9,16,1.9,14,3.2,7
2012/10/1 8:26,2.1,16,2.1,16,6,8
2012/10/1 8:27,2.1,16,2.2,15,5.5,8
2012/10/1 8:28,2,2,2.1,15,4.1,4
2012/10/1 8:29,2,2,2,15,3.5,1
2012/10/1 8:30,2.1,2,2.1,15,5.1,3
2012/10/1 8:31,2.4,3,2.4,3,6.7,16
2012/10/1 8:32,2.3,3,2.4,3,3.1,1
2012/10/1 8:33,2.3,3,2.4,3,3.8,3
2012/10/1 8:34,2.1,4,2.3,3,2.5,4
2012/10/1 8:35,2,3,2.1,3,1.3,2
2012/10/1 8:36,1.8,3,2,3,2,16
2012/10/1 8:37,1.7,2,1.8,3,2.5,16
2012/10/1 8:38,1.7,3,1.7,3,4.9,5
2012/10/1 8:39,1.8,3,1.8,3,4.4,5
2012/10/1 8:40,1.8,3,1.8,3,3.5,16
2012/10/1 8:41,1.5,3,1.7,3,3.6,3
2012/10/1 8:42,1.5,3,1.5,3,4.4,15
2012/10/1 8:43,1.6,3,1.6,3,4.9,16
2012/10/1 8:44,1.8,2,1.8,4,4.5,16
2012/10/1 8:45,2,2,2,3,3.9,16
2012/10/1 8:46,2.1,2,2.1,2,3.7,16
2012/10/1 8:47,2.1,2,2.1,2,2.7,4
2012/10/1 8:48,2,2,2.1,2,3.1,5
2012/10/1 8:49,1.9,2,2,2,2.7,5
2012/10/1 8:50,1.8,1,1.9,2,3,13
2012/10/1 8:51,1.7,16,1.8,2,1.8,12
2012/10/1 8:52,1.7,16,1.8,2,1.8,11
2012/10/1 8:53,1.5,16,1.6,2,1.6,9
2012/10/1 8:54,1.2,15,1.5,2,1.8,8
2012/10/1 8:55,1.1,9,1.2,2,1.3,8
2012/10/1 8:56,1.1,8,1.1,2,4.3,5
2012/10/1 8:57,1,9,1.1,2,1.3,5
2012/10/1 8:58,1,9,1,2,2.6,3
2012/10/1 8:59,1.2,9,1.2,1,5.5,2
2012/10/1 9:00,1.4,7,1.4,1,5.5,16
2012/10/1 9:01,1.7,4,1.7,16,6.9,5
2012/10/1 9:02,1.9,3,1.9,4,7.6,3
2012/10/1 9:03,2,3,2,3,3.8,2
2012/10/1 9:04,2.2,2,2.2,2,3.3,12
2012/10/1 9:05,2.2,1,2.2,2,3.3,13
2012/10/1 9:06,2.3,1,2.3,1,3.1,3
2012/10/1 9:07,2.4,1,2.5,1,5.1,3
2012/10/1 9:08,2.6,1,2.6,1,4.4,9
2012/10/1 9:09,2.5,1,2.6,1,2.5,5
2012/10/1 9:10,2.2,2,2.4,1,3.8,3
2012/10/1 9:11,1.9,2,2.2,1,3,3
2012/10/1 9:12,1.7,2,1.9,1,2.1,3
2012/10/1 9:13,1.6,2,1.7,1,2.5,8
2012/10/1 9:14,1.6,4,1.6,1,4.7,9
2012/10/1 9:15,1.7,5,1.7,1,4.7,10
2012/10/1 9:16,1.6,7,1.7,1,2.5,13
2012/10/1 9:17,1.6,10,1.6,1,3.7,10
2012/10/1 9:18,1.5,9,1.6,1,6.1,3
2012/10/1 9:19,1.8,9,1.8,1,6.5,4
2012/10/1 9:20,2,11,2,2,5.4,16
2012/10/1 9:21,2.4,12,2.4,12,6.7,1
2012/10/1 9:22,2.5,13,2.5,12,4.1,15
2012/10/1 9:23,2.6,14,2.6,13,5.1,16
2012/10/1 9:24,2.6,15,2.7,14,4.1,3
2012/10/1 9:25,2.7,16,2.7,14,5.2,15
2012/10/1 9:26,2.7,1,2.7,14,4.4,16
2012/10/1 9:27,2.8,1,2.8,1,8.1,4
2012/10/1 9:28,3,2,3,2,5.4,2
2012/10/1 9:29,3.1,1,3.1,1,9.5,15
2012/10/1 9:30,3.2,1,3.2,1,9.3,15
2012/10/1 9:31,3.1,1,3.2,1,5.8,3
2012/10/1 9:32,3.2,1,3.2,1,10,2
2012/10/1 9:33,3.3,1,3.3,1,9.7,1
2012/10/1 9:34,3.5,1,3.5,1,8.4,16
2012/10/1 9:35,3.4,1,3.5,1,5.1,1
2012/10/1 9:36,3.9,1,3.9,1,9.8,15
2012/10/1 9:37,4.1,1,4.1,1,7.5,16
2012/10/1 9:38,4.2,16,4.2,1,7,15
2012/10/1 9:39,3.9,1,4.2,1,5.5,5
2012/10/1 9:40,3.7,1,3.9,1,5.1,5
2012/10/1 9:41,3.6,1,3.7,1,7.1,16
2012/10/1 9:42,3.7,1,3.8,1,6.7,3
2012/10/1 9:43,3.6,1,3.6,1,6.3,15
2012/10/1 9:44,3.4,1,3.6,1,6.7,15
2012/10/1 9:45,3.3,1,3.4,1,6,1
2012/10/1 9:46,3.2,1,3.4,1,7.8,2
2012/10/1 9:47,3.1,2,3.1,1,7.5,1
2012/10/1 9:48,3.2,2,3.2,16,6.9,16
2012/10/1 9:49,3.2,1,3.2,1,6.2,16
2012/10/1 9:50,3.2,1,3.2,1,6.8,1
2012/10/1 9:51,3.1,1,3.3,1,4.5,1
2012/10/1 9:52,3.1,1,3.2,1,5.8,1
2012/10/1 9:53,3.2,1,3.2,1,5.8,4
2012/10/1 9:54,3.3,2,3.3,1,6.2,4
2012/10/1 9:55,3.3,2,3.4,1,3.7,4
2012/10/1 9:56,3.2,2,3.3,2,9.7,2
2012/10/1 9:57,3,2,3.2,2,7.5,2
2012/10/1 9:58,2.9,2,3,2,6.3,1
2012/10/1 9:59,3.1,2,3.1,2,6.7,2
2012/10/1 10:00,3.2,2,3.2,2,5.5,16
2012/10/1 10:01,3.2,1,3.2,2,4.5,3
2012/10/1 10:02,3.3,1,3.3,2,9.1,1
2012/10/1 10:03,3.3,1,3.3,2,7.1,15
2012/10/1 10:04,3.3,1,3.3,2,7.6,16
2012/10/1 10:05,3.4,1,3.4,1,6,1
2012/10/1 10:06,3.3,1,3.4,1,4.5,16
2012/10/1 10:07,3.3,16,3.3,1,5.8,1
2012/10/1 10:08,3.3,1,3.4,1,6,16
2012/10/1 10:09,3,16,3.2,1,4.2,15
2012/10/1 10:10,3.2,1,3.2,1,8.9,16
2012/10/1 10:11,3.2,1,3.2,1,7.5,16
2012/10/1 10:12,3.1,16,3.3,1,7,1
2012/10/1 10:13,3,1,3.1,1,4.3,3
2012/10/1 10:14,3.1,1,3.1,1,8.3,1
2012/10/1 10:15,3.3,1,3.3,1,7.4,1
2012/10/1 10:16,3.5,1,3.6,1,7.8,16
2012/10/1 10:17,3.4,16,3.5,1,4.4,15
2012/10/1 10:18,3.5,1,3.5,1,6.9,1
2012/10/1 10:19,3.6,1,3.6,1,8.1,1
2012/10/1 10:20,3.7,1,3.7,1,9.8,16
2012/10/1 10:21,3.8,16,3.8,1,7.1,15
2012/10/1 10:22,3.8,16,3.8,1,7.7,15
2012/10/1 10:23,3.9,16,3.9,16,6.2,16
2012/10/1 10:24,3.7,16,3.9,16,6.4,1
2012/10/1 10:25,3.6,16,3.7,16,6.2,15
2012/10/1 10:26,3.6,16,3.6,16,9.5,16
2012/10/1 10:27,3.9,16,3.9,16,8.4,15
2012/10/1 10:28,3.7,16,3.9,16,6.5,16
2012/10/1 10:29,3.7,16,3.8,16,6.8,16
2012/10/1 10:30,3.6,16,3.7,16,7.5,15
2012/10/1 10:31,3.5,16,3.6,16,9.1,16
2012/10/1 10:32,3.7,16,3.7,16,8.6,15
2012/10/1 10:33,4,16,4,16,12.3,16
2012/10/1 10:34,4.5,16,4.5,16,13.5,15
2012/10/1 10:35,4.7,16,4.7,16,11,15
2012/10/1 10:36,5.1,16,5.1,16,13.3,16
2012/10/1 10:37,5.3,16,5.3,16,13.6,15
2012/10/1 10:38,5.8,16,5.8,16,12.3,16
2012/10/1 10:39,6,16,6,16,10.3,15
2012/10/1 10:40,6.4,16,6.4,16,14.2,16
2012/10/1 10:41,6.4,16,6.5,16,9.3,16
2012/10/1 10:42,6.6,15,6.6,15,12.8,16
2012/10/1 10:43,6.8,15,6.8,16,14.8,14
2012/10/1 10:44,6.8,15,6.8,16,11.4,14
2012/10/1 10:45,6.8,15,6.9,15,10.2,16
2012/10/1 10:46,6.6,15,6.8,15,13.5,15
2012/10/1 10:47,6.5,15,6.7,15,10.5,16
2012/10/1 10:48,6.3,15,6.4,15,11,16
2012/10/1 10:49,6.2,15,6.3,15,9.5,16
2012/10/1 10:50,6.1,15,6.2,15,14.1,16
2012/10/1 10:51,6.3,15,6.3,15,11.4,1
2012/10/1 10:52,6.2,16,6.3,15,12.1,16
2012/10/1 10:53,5.8,16,6.2,15,9.7,16
2012/10/1 10:54,5.5,16,5.7,15,9.7,14
2012/10/1 10:55,5.5,16,5.5,15,9.7,14
2012/10/1 10:56,5.7,16,5.7,15,13.2,15
2012/10/1 10:57,5.7,16,5.7,15,11.8,16
2012/10/1 10:58,5.6,16,5.7,15,7.6,15
2012/10/1 10:59,5.5,15,5.7,15,11.5,14
2012/10/1 11:00,5.8,16,5.9,15,15.4,16
2012/10/1 11:01,5.8,16,5.8,15,9.5,16
2012/10/1 11:02,6.1,15,6.1,16,13.4,16
2012/10/1 11:03,6.3,15,6.3,15,10.9,15
2012/10/1 11:04,6.6,15,6.6,15,14.4,15
2012/10/1 11:05,6.7,16,6.7,16,11.7,15
2012/10/1 11:06,6.6,16,6.7,16,9.9,15
2012/10/1 11:07,6.7,16,6.7,16,10.3,16
2012/10/1 11:08,6.8,16,6.8,16,8.5,16
2012/10/1 11:09,6.9,16,6.9,16,9,16
2012/10/1 11:10,6.5,16,6.8,16,11.3,15
2012/10/1 11:11,6.8,16,6.8,16,12.4,16
2012/10/1 11:12,6.2,16,6.7,16,8.1,15
2012/10/1 11:13,6.2,16,6.3,16,9.5,1
2012/10/1 11:14,5.8,16,6.1,16,7.4,16
2012/10/1 11:15,5.5,16,5.7,16,9.9,16
2012/10/1 11:16,5.7,16,5.7,16,13,14
2012/10/1 11:17,5.9,16,5.9,16,12.8,14
2012/10/1 11:18,6,16,6,16,14.5,15
2012/10/1 11:19,6.1,16,6.1,16,11.1,15
2012/10/1 11:20,6,16,6.3,16,9,16
2012/10/1 11:21,5.8,16,6,16,8.3,16
2012/10/1 11:22,6.1,16,6.1,16,11,15
2012/10/1 11:23,6,16,6.1,16,11.5,16
2012/10/1 11:24,6.1,16,6.1,16,10.6,16
2012/10/1 11:25,6.1,16,6.2,16,7.9,16
2012/10/1 11:26,5.8,16,6.1,16,8.7,1
2012/10/1 11:27,5.8,16,5.8,16,13.5,16